Regional Weather Roundup
Issued by NWS Sioux Falls, SD

Home | Current Version | Previous Version | Text Only | Print | Product List | Glossary On
Versions: 1 2 3 4 5 6 7 8 9 10 11 12 13 14 15 16 17 18 19 20 21 22 23 24 25 26 27 28 29 30 31 32 33 34 35 36 37 38 39 40 41 42 43 44 45 46 47 48 49 50
000
ASUS43 KFSD 290102
RWRFSD

WEATHER ROUNDUP FOR SE SOUTH DAKOTA/SW MINNESOTA/NW IOWA
NATIONAL WEATHER SERVICE SIOUX FALLS SD
800 PM CDT THU AUG 28 2014

NOTE: "FAIR" INDICATES FEW OR NO CLOUDS BELOW 12,000 FEET WITH NO
SIGNIFICANT WEATHER AND OR OBSTRUCTIONS TO VISIBILITY.


SDZ038>040-050-052>070-290200-
SOUTHEAST SOUTH DAKOTA

CITY           SKY/WX    TMP DP  RH WIND       PRES   REMARKS
CHAMBERLAIN    PTCLDY    72  69  89 N6        29.81F
HURON          CLOUDY    71  68  90 NE6       29.82R
MADISON        CLOUDY    70  70 100 SE8       29.86S
MITCHELL       LGT RAIN  73  71  93 W6        29.81S
SIOUX FALLS    CLOUDY    72  69  90 E9        29.83F
WINNER         FAIR      71  67  87 NW9       29.85S
YANKTON        MOCLDY    77  72  83 SE7       29.79S
$$

MNZ071-072-080-081-089-090-097-098-290200-
SOUTHWEST MINNESOTA

CITY           SKY/WX    TMP DP  RH WIND       PRES   REMARKS
FAIRMONT       CLOUDY    64  61  88 E9        29.89F
JACKSON        RAIN      66  63  88 E8        29.89F
LUVERNE        CLOUDY    70  68  94 E5        29.86S FOG
MARSHALL       CLOUDY    70  64  83 E9        29.86S
MONTEVIDEO     CLOUDY    66  66 100 SE10      29.89S
PIPESTONE      CLOUDY    70  66  88 SE5       29.87S
REDWOOD FALLS  CLOUDY    68  66  93 SE8       29.88S
TRACY          CLOUDY    69  68  95 CALM      29.88S
WINDOM         CLOUDY    66  66 100 E8        29.89S FOG
WORTHINGTON    CLOUDY    68  66  94 E10       29.88F VSB 3/4
$$

IAZ001>003-012>014-020>022-031-032-NEZ013-014-SDZ071-290200-
NORTHWEST IOWA

CITY           SKY/WX    TMP DP  RH WIND       PRES   REMARKS
DENISON        MOCLDY    75  75 100 SE5       29.83F
ESTHERVILLE    CLOUDY    66  66 100 E6        29.88F FOG
LE MARS        CLOUDY    75  73  94 SE6       29.83S
ORANGE CITY    CLOUDY    75  70  83 SE3       29.84F
SHELDON        CLOUDY    70  70 100 NE6       29.84F
SIOUX CITY     CLOUDY    77  72  84 SE6       29.81F
SPENCER        CLOUDY    72  70  93 SE9       29.86F
STORM LAKE     CLOUDY    73  73 100 SE6       29.86F
$$

ABBREVIATIONS USED IN REMARKS
   TC - TEMPERATURE IN CELSIUS
  WCI - WIND CHILL INDEX
   HX - HEAT INDEX
  VSB - VISIBILITY




USA.gov is the U.S. government's official web portal to all federal, state and local government web resources and services.